EW0791 Weather Reports


Display with metric or nautical units.
time (UTC)temp
F
wind
direction
speed
MPH
gust
MPH
rain 1hr
in
rain 24hr
in
rain mn
in
humidity
%
barometer
mb
20210517030335 60 164 0.0 0.0 0.00 0.00 0.00 65 1025.0
20210517024818 60 164 0.0 0.0 0.00 0.00 0.00 62 1024.9
20210517023326 60 164 0.0 0.0 0.00 0.00 0.00 61 1025.0
20210517021829 61 174 0.0 0.0 0.00 0.00 0.00 60 1025.0
20210517020332 61 169 0.0 1.0 0.00 0.00 0.00 59 1025.1
20210517014838 62 170 0.0 1.0 0.00 0.00 0.00 59 1024.9
20210517013314 62 207 0.0 1.0 0.00 0.00 0.00 58 1024.9
20210517011816 63 208 0.0 2.0 0.00 0.00 0.00 56 1024.7
20210517010325 63 301 1.0 2.0 0.00 0.00 0.00 56 1024.4
20210517004829 64 219 1.0 6.0 0.00 0.00 0.00 54 1024.2
20210517003334 65 111 0.0 1.0 0.00 0.00 0.00 51 1024.1
20210517001838 65 245 1.0 4.0 0.00 0.00 0.00 49 1024.0
20210517000317 66 208 2.0 6.0 0.00 0.00 0.00 47 1023.8
20210516234822 67 268 1.0 5.0 0.00 0.00 0.00 46 1023.8
20210516233328 67 224 4.0 8.0 0.00 0.00 0.00 44 1023.9
20210516231833 68 198 4.0 7.0 0.00 0.00 0.00 42 1023.7
20210516230337 70 56 1.0 2.0 0.00 0.00 0.00 41 1023.3
20210516224818 70 132 0.0 1.0 0.00 0.00 0.00 40 1023.5
20210516223325 71 57 0.0 2.0 0.00 0.00 0.00 38 1023.4
20210516221821 71 75 0.0 2.0 0.00 0.00 0.00 39 1023.4
20210516220325 71 233 0.0 1.0 0.00 0.00 0.00 37 1023.3
20210516214828 72 158 1.0 2.0 0.00 0.00 0.00 35 1023.2
20210516213329 72 96 1.0 8.0 0.00 0.00 0.00 35 1023.0
20210516211833 73 169 2.0 6.0 0.00 0.00 0.00 33 1022.9
20210516210333 75 340 1.0 6.0 0.00 0.00 0.00 33 1022.8
20210516204838 76 198 1.0 2.0 0.00 0.00 0.00 25 1022.5
20210516203316 76 46 2.0 6.0 0.00 0.00 0.00 28 1022.3
20210516201821 77 26 2.0 4.0 0.00 0.00 0.00 24 1022.2
20210516200323 79 232 1.0 5.0 0.00 0.00 0.00 21 1022.2
20210516194828 81 184 2.0 5.0 0.00 0.00 0.00 20 1022.1
20210516193332 80 165 2.0 8.0 0.00 0.00 0.00 20 1022.4
20210516191833 80 277 3.0 7.0 0.00 0.00 0.00 21 1022.3
20210516190335 80 193 2.0 6.0 0.00 0.00 0.00 21 1022.3
20210516184838 78 4 2.0 7.0 0.00 0.00 0.00 18 1022.6
20210516183315 78 217 3.0 10.0 0.00 0.00 0.00 18 1022.5
20210516181822 79 245 1.0 8.0 0.00 0.00 0.00 23 1022.6
20210516180318 77 189 2.0 10.0 0.00 0.00 0.00 22 1022.8
20210516174817 76 255 3.0 10.0 0.00 0.00 0.00 25 1023.1
20210516173319 76 235 2.0 9.0 0.00 0.00 0.00 26 1023.3
20210516171814 75 198 2.0 4.0 0.00 0.00 0.00 31 1023.3
20210516170317 74 151 2.0 4.0 0.00 0.00 0.00 30 1023.5
20210516164824 74 219 1.0 3.0 0.00 0.00 0.00 35 1023.8
20210516163324 71 236 1.0 6.0 0.00 0.00 0.00 43 1023.9
20210516161829 72 158 1.0 4.0 0.00 0.00 0.00 35 1024.1
20210516160333 74 287 0.0 5.0 0.00 0.00 0.00 30 1024.1
20210516154816 76 207 0.0 4.0 0.00 0.00 0.00 28 1024.3
20210516153323 76 212 2.0 7.0 0.00 0.00 0.00 28 1024.4
20210516151829 75 205 2.0 6.0 0.00 0.00 0.00 27 1024.5
20210516150333 73 151 1.0 5.0 0.00 0.00 0.00 29 1024.7
20210516144836 75 236 1.0 3.0 0.00 0.00 0.00 31 1024.6
20210516143314 74 289 1.0 3.0 0.00 0.00 0.00 29 1024.7
20210516141839 74 262 1.0 5.0 0.00 0.00 0.00 30 1024.7
20210516140338 73 213 3.0 7.0 0.00 0.00 0.00 33 1024.7
20210516134814 73 19 1.0 6.0 0.00 0.00 0.00 34 1024.8
20210516133337 72 268 2.0 7.0 0.00 0.00 0.00 35 1024.8
20210516131814 71 154 0.0 1.0 0.00 0.00 0.00 41 1024.9
20210516130321 69 320 1.0 2.0 0.00 0.00 0.00 43 1025.1
20210516124829 66 169 1.0 3.0 0.00 0.00 0.00 45 1025.2
20210516123336 66 193 1.0 2.0 0.00 0.00 0.00 46 1025.1
20210516121814 66 214 1.0 2.0 0.00 0.00 0.00 46 1025.1
20210516120322 66 198 1.0 3.0 0.00 0.00 0.00 45 1024.9
20210516114819 63 135 0.0 1.0 0.00 0.00 0.00 51 1024.9
20210516113325 60 135 0.0 1.0 0.00 0.00 0.00 62 1024.9
20210516111833 60 136 0.0 1.0 0.00 0.00 0.00 59 1024.8
20210516110338 60 103 0.0 1.0 0.00 0.00 0.00 58 1024.8
20210516104818 59 167 1.0 1.0 0.00 0.00 0.00 56 1024.7
20210516103325 59 97 0.0 1.0 0.00 0.00 0.00 55 1024.5
20210516101830 59 97 0.0 1.0 0.00 0.00 0.00 52 1024.4
20210516100337 60 106 1.0 3.0 0.00 0.00 0.00 52 1024.1
20210516094815 59 176 1.0 4.0 0.00 0.00 0.00 50 1024.1
20210516093322 56 210 0.0 3.0 0.00 0.00 0.00 59 1024.1
20210516091826 55 96 1.0 2.0 0.00 0.00 0.00 68 1024.0
20210516090328 54 80 1.0 2.0 0.00 0.00 0.00 69 1024.1
20210516084832 53 208 0.0 2.0 0.00 0.00 0.00 68 1024.1
20210516083338 52 219 0.0 1.0 0.00 0.00 0.00 75 1024.0
20210516081816 53 226 0.0 2.0 0.00 0.00 0.00 76 1023.8
20210516080318 52 92 0.0 1.0 0.00 0.00 0.00 74 1023.7
20210516074822 52 93 0.0 1.0 0.00 0.00 0.00 73 1023.7
20210516073330 52 183 0.0 1.0 0.00 0.00 0.00 72 1023.7
20210516071837 52 209 0.0 2.0 0.00 0.00 0.00 71 1023.5
20210516070318 52 178 0.0 1.0 0.00 0.00 0.00 72 1023.5
20210516064825 51 221 0.0 0.0 0.00 0.00 0.00 69 1023.3
20210516063332 51 221 0.0 1.0 0.00 0.00 0.00 67 1023.3
20210516061813 51 221 0.0 1.0 0.00 0.00 0.00 69 1023.3
20210516060320 52 221 0.0 1.0 0.00 0.00 0.00 66 1023.4
20210516054829 51 166 0.0 0.0 0.00 0.00 0.00 71 1023.4
20210516053335 51 164 0.0 0.0 0.00 0.00 0.00 73 1023.4
20210516051813 51 164 0.0 0.0 0.00 0.00 0.00 73 1023.4
20210516050319 52 164 0.0 0.0 0.00 0.00 0.00 72 1023.5
20210516044825 52 164 0.0 0.0 0.00 0.00 0.00 70 1023.4
20210516043330 52 164 0.0 0.0 0.00 0.00 0.00 70 1023.4
20210516041814 53 164 0.0 0.0 0.00 0.00 0.00 69 1023.3
20210516040320 53 164 0.0 0.0 0.00 0.00 0.00 68 1023.3
20210516034826 54 164 0.0 1.0 0.00 0.00 0.00 65 1023.2
20210516033335 55 164 0.0 0.0 0.00 0.00 0.00 62 1023.0
20210516031814 56 164 0.0 0.0 0.00 0.00 0.00 59 1023.1